Regional Weather Roundup
Issued by NWS Charleston, SC

Current Version | Previous Version | Text Only | Print | Product List | Glossary Off
Versions: 1 2 3 4 5 6 7 8 9 10 11 12 13 14 15 16 17 18 19 20 21 22 23 24 25 26 27 28 29 30 31 32 33 34 35 36 37 38 39 40 41 42 43 44 45 46 47 48 49 50
478 ASUS42 KCHS 212012 RWRCHS REGIONAL WEATHER ROUNDUP NATIONAL WEATHER SERVICE CHARLESTON SC 400 PM EDT FRI JUL 21 2017 NOTE: "FAIR" INDICATES FEW OR NO CLOUDS BELOW 12,000 FEET WITH NO SIGNIFICANT WEATHER AND/OR OBSTRUCTIONS TO VISIBILITY. NOT ALL STATIONS ARE QUALITY CONTROLLED. USE DATA WITH CAUTION... ESPECIALLY DEWPOINT OBSERVATIONS. SCZ027-030-031-034>040-042>050-212100- ...SOUTHEAST SOUTH CAROLINA... CITY SKY/WX TMP DP RH WIND PRES REMARKS N CHARLESTON MOSUNNY 90 75 61 S13 30.00F HX 100 WATERFRONT PRK N/A 86 77 74 S10 30.00F HX 97 JOHNS ISLAND FAIR 88 77 70 S10 30.02F HX 100 PINOPOLIS N/A 93 73 52 CALM 29.93F HX 102 MONCKS CORNER FAIR 91 68 46 SE7 29.99F HX 95 SUMMERVILLE FAIR 90 72 55 S6 30.00F HX 96 BEAUFORT MCAS MOSUNNY 91 77 63 SE7 30.01F HX 104 BEAUFORT ARPT NOT AVBL HILTON HEAD IS SUNNY 88 75 66 SE9 30.02F HX 97 WALTERBORO MOCLDY 90 73 58 S8 30.00F HX 98 ALLENDALE NOT AVBL ...SOUTHERN MIDLANDS AND PEE DEE... CITY SKY/WX TMP DP RH WIND PRES REMARKS GEORGETOWN FAIR 88 77 70 S12G17 30.01F HX 100 KINGSTREE FAIR 90 72 55 S5 29.99S HX 96 ORANGEBURG MOSUNNY 92 73 53 S8 29.99F HX 100 BARNWELL FAIR 95 77 55 S7 29.98F HX 109 AIKEN MOCLDY 79 70 73 SW8 30.04F MANNING FAIR 91 68 46 W17G25 29.99F HX 95 COLUMBIA MOSUNNY 95 71 45 SW8 29.96F HX 102 SUMTER MOSUNNY 95 74 51 S10 29.96F HX 105 FLORENCE MOSUNNY 92 75 57 S7 29.98F HX 103 MYRTLE BEACH MOSUNNY 88 77 70 S18 30.01F HX 100 N MYRTLE BEACH SUNNY 85 77 77 S16 30.00F HX 95 $$ GAZ063-065-086>088-099>101-113>116-118-119-134>141-150-212100- ...SOUTHEAST GEORGIA... CITY SKY/WX TMP DP RH WIND PRES REMARKS SAVANNAH ARPT PTSUNNY 93 75 55 S8 29.99F HX 104 HUNTER AAF NOT AVBL FORT STEWART NOT AVBL STATESBORO MOSUNNY 95 74 51 S8 29.98F HX 105 SYLVANIA PTCLDY 93 77 60 SE3 29.99F HX 107 CLAXTON FAIR 92 76 60 CALM 29.98F HX 104 ...CSRA...CENTRAL AND FAR SOUTHEAST GEORGIA... CITY SKY/WX TMP DP RH WIND PRES REMARKS THOMSON CLOUDY 94 71 48 NE9 30.02F HX 100 AUGUSTA-BUSH MOSUNNY 96 76 52 SE6 29.96F HX 109 AUGUSTA-DANIEL CLOUDY 85 78 80 CALM 29.99F HX 96 SWAINSBORO MOCLDY 82 77 83 E10 30.02R HX 91 VIDALIA LGT RAIN 77 72 83 N9 30.00F EASTMAN FAIR 96 52 22 CALM 29.99F HX 93 HAZLEHURST MOCLDY 93 76 58 S5 29.96F HX 105 ALMA MOSUNNY 95 74 50 SE8 29.97F HX 105 WAYCROSS PTSUNNY 96 78 55 S5 29.98F HX 111 JESUP NOT AVBL BAXLEY FAIR 95 79 59 S8 29.97F HX 112 BRUNSWICK SUNNY 91 73 55 SE10 30.02F HX 100 SAINT SIMONS SUNNY 88 75 65 SE15 30.01F HX 97 $$ SCZ027-028-034-036>038-045-046-048>050-GAZ119-141-212100- ...LAKE AND SUPPLEMENTAL COASTAL OBSERVATIONS... STATION/POSITION TIME TEMP WIND PRES WAVE SWELL AIR SEA DIR/SP/G HT/PER HT/PER/DIR (UTC) (F) (DEG/KT/KT) (MB) (FT/S) (FT/S/D) WINYAH BAY 1845 87 180/ 11 1016.0 LAKE MURRAY 1920 93 170/ 5/ 5 1013.9F ACE BASIN NERRS 1845 88 170/ 1 1017.0 FORT PULASKI 1942 87 86 170/ 7/ 10 1016.7F SAPELO ISLAND 1900 92 160/ 8 1017.0 $$ ANZ835-935-AMZ111-154-330-350-352-354-370-450-454-472-212100- ...C-MAN AND BUOY OBSERVATIONS... STATION/POSITION TIME TEMP WIND PRES WAVE SWELL AIR SEA DIR/SP/G HT/PER HT/PER/DIR (UTC) (F) (DEG/KT/KT) (MB) (FT/S) (FT/S/D) BUOY 41004 1950 83 84 200/ 8/ 10 1016.5F 3/ 8 2/130/ 8 BUOY 41008 1950 82 84 170/ 8/ 10 1016.5F 2/ 8 2/100/ 8 FOLLY BEACH CMAN 1900 84 210/ 12/ 13 1017.5F CAPERS NEARSHORE 1908 82 85 220/ 10/ 14 1016.6F FRIPP NEARSHORE 1908 83 85 200/ 10/ 14 1016.5F STATION/POSITION TIME TEMP WIND PRES WAVE SWELL AIR SEA DIR/SP/G HT/PER HT/PER/DIR (UTC) (F) (DEG/KT/KT) (MB) (FT/S) (FT/S/D) 5E ST. MARYS GA 1930 84 N/A 2/ 7 FRYING PAN BUOY 1950 83 84 210/ 14/ 16 1016.1F 3/ 8 2/130/ 8 BUOY 41025 1950 83 85 220/ 16/ 17 1015.2F 4/ 4 2/130/ 8 CAPE LOOKOUT NC 1900 84 220/ 10/ 14 1015.7F BUOY 41002 1950 83 84 220/ 10/ 12 1018.4F 4/ 9 3/110/ 9 BUOY 41010 1950 84 85 130/ 6/ 8 1018.1R 3/ 9 3/ 90/ 9 ST AUGUSTINE FL 2000 81 84 130/ 9/ 10 1017.5F $$

USA.gov is the U.S. government's official web portal to all federal, state and local government web resources and services.